Temp_Advection
nan nan nan nan nan nan nan nan nan nan nan nan nan nan nan nan nan nan nan nan nan nan nan nan nan nan nan nan nan nan nan nan nan nan nan nan nan nan nan nan nan nan nan nan nan nan nan nan nan
nan 0 -0 -0 -0 0 -0 -1 -0 -0 -1 0 -0 -0 -0 0 -0 -0 -0 -0 -0 0 0 0 0 0 0 0 0 0 0 0 0 0 -0 -0 0 0 0 0 0 0 0 1 0 0 0 0 nan
nan 0 -0 -0 -0 -0 -0 -1 -0 -0 -0 -0 -0 0 -0 -0 -0 -0 -0 -0 -0 0 0 0 0 0 1 0 0 0 0 0 0 -0 -0 -0 -0 0 0 0 0 0 0 1 0 0 0 0 nan
nan 0 -0 -0 -0 -0 -1 -0 -0 -0 -2 0 1 0 0 -0 -0 0 -0 -0 0 0 0 0 0 0 0 1 0 0 1 1 0 0 0 0 -0 -0 -0 -0 0 0 0 -0 0 0 0 0 nan
nan -0 0 0 -0 -0 -0 -1 -0 -0 -0 -1 1 0 0 0 0 0 0 0 0 0 0 0 0 0 0 0 0 1 1 0 1 1 1 1 1 1 0 0 0 0 0 -0 0 0 0 0 nan
nan 0 -0 -0 -1 -0 -0 -1 -0 -0 -1 -0 0 0 0 0 0 0 1 1 0 0 0 0 1 0 0 0 0 0 0 1 1 2 2 2 2 2 1 1 1 0 0 0 0 0 0 0 nan
nan 0 -0 -0 -0 -0 -1 -0 -0 -0 -0 -1 -0 -0 -0 -0 0 1 1 0 0 0 0 0 1 0 0 0 0 0 1 1 1 2 2 1 1 0 1 1 0 0 0 0 0 0 0 0 nan
nan -0 0 -0 0 -1 -1 -0 -0 0 -0 -0 1 -1 -0 -1 0 1 0 -0 0 0 0 0 0 0 0 0 0 1 1 0 0 -1 -0 -0 0 0 1 1 -0 0 0 0 0 1 1 0 nan
nan 0 -0 -0 -0 -1 0 -0 0 -0 -0 -1 -0 -1 -1 -0 -0 -0 -0 -0 -0 0 0 0 0 0 1 1 1 0 -0 -0 -0 -0 -0 1 -0 1 0 0 0 0 0 0 0 1 1 0 nan
nan -0 -1 -1 -1 -0 -0 -0 -1 -0 -1 -1 -1 -0 0 0 0 -0 -0 -0 0 0 0 0 0 1 1 1 -0 0 0 1 0 1 1 0 -0 -0 -0 -0 1 1 1 1 0 0 0 0 nan
nan -1 -0 -0 -1 0 -0 -1 -0 -0 -0 -1 -1 -0 1 1 0 -0 0 -0 0 1 0 0 0 1 1 0 0 0 0 1 0 1 1 -0 0 -0 0 0 1 0 1 1 0 -0 -0 -0 nan
nan -0 -1 -0 -0 0 -0 -1 -0 -0 -1 -1 -1 -0 1 0 -1 0 0 0 1 1 0 0 1 1 1 0 0 0 0 0 0 1 0 0 0 -0 -0 1 0 -0 0 0 0 -0 -0 0 nan
nan -1 -1 -0 -0 -0 1 0 -1 -1 -2 -1 -0 1 0 -1 -0 1 1 1 1 1 0 0 1 1 1 0 0 -0 -0 -0 0 0 0 0 0 -0 1 0 -0 -0 -0 0 0 0 0 0 nan
nan -0 -0 -0 -0 0 0 -0 -0 -2 -1 -0 -0 0 -1 -0 1 1 0 0 0 0 0 0 1 1 0 0 -0 0 -0 -0 0 0 1 0 0 1 1 -1 -0 -0 -0 -0 -0 0 0 0 nan
nan 0 -0 -0 0 -0 -0 1 -0 -3 -1 -0 -0 0 -0 0 0 -0 0 0 1 1 0 0 1 1 0 0 -0 -0 -0 0 1 1 0 0 -0 0 -0 0 -0 0 -0 -0 -0 -0 0 0 nan
nan 0 -0 -0 -0 -0 1 0 -1 -2 -0 0 0 1 -0 -0 0 1 1 0 1 1 0 0 1 1 0 -0 -0 -0 0 1 0 0 0 0 0 0 -0 -1 -0 -0 -0 -0 -0 -0 -0 0 nan
nan -0 -0 -0 -0 0 0 -0 -0 -1 0 -0 -1 0 0 0 1 1 0 1 1 1 0 0 1 1 1 0 -0 -0 0 1 0 -0 0 0 -0 -0 -1 -1 -0 -0 0 -0 0 -0 -0 -0 nan
nan -0 -0 -0 -0 -0 0 -0 -1 -1 0 -0 -1 -0 -0 -0 -1 1 1 1 1 1 0 0 1 1 1 -0 0 0 0 0 -0 -0 0 -0 -0 -0 -1 0 0 0 0 -0 0 -0 0 -0 nan
nan 0 0 -0 -0 -0 0 -0 -0 -0 -0 -0 -2 -1 -0 -1 1 3 1 1 1 0 0 0 1 1 -0 -0 1 0 0 0 -0 0 0 -0 -0 -0 0 1 0 0 -0 0 0 0 0 0 nan
nan -0 -0 -0 -0 0 0 -0 -1 -0 -0 -1 -1 -0 -0 -0 1 1 1 1 1 1 0 0 1 0 0 1 0 0 0 0 0 0 -0 -0 0 0 1 0 0 1 0 0 -0 0 -0 -0 nan
nan -0 -0 -0 -1 -0 0 -0 -1 -1 -0 -1 -0 1 -1 -0 1 -0 -0 1 0 0 -0 0 1 1 1 1 0 0 0 0 0 0 0 0 0 1 0 0 1 0 0 -0 -0 -0 -0 -0 nan
nan -0 -0 0 -0 -0 -0 -0 -1 -0 -0 -0 -0 -0 -1 1 -0 -1 -0 -1 -0 0 0 1 1 1 1 1 -0 0 0 0 0 0 0 0 0 0 -0 0 1 0 1 0 1 0 -0 0 nan
nan -0 -0 -0 -0 -0 0 -0 -1 -0 -0 -0 -0 -1 -0 0 -0 1 0 1 1 1 1 1 1 1 0 0 0 0 0 -0 0 0 0 -0 0 0 -0 0 1 1 1 1 1 1 0 1 nan
nan -0 -0 -0 0 -0 -0 -0 -0 -0 -1 -0 -0 -0 -0 0 1 2 4 2 1 0 0 1 1 0 0 0 0 0 -0 -0 -0 0 0 0 0 0 0 0 1 1 1 1 1 0 0 1 nan
nan 0 -0 0 0 -0 -0 -0 -1 -1 -0 -0 -0 -1 -0 0 2 2 0 -1 -0 -1 -0 1 0 0 0 0 0 0 -0 -0 0 0 0 -0 -0 0 0 1 1 0 0 0 0 -0 1 1 nan
nan 0 -0 -0 -0 -0 0 -0 -1 -1 -0 -0 -2 -2 -0 1 1 1 0 -1 -1 -1 0 0 0 0 0 -0 0 0 -0 0 0 -0 -0 -0 0 0 1 1 0 -0 -0 -0 -0 0 1 -0 nan
nan -0 -0 -0 0 -0 -0 -1 -0 -1 -1 -1 -1 -3 -1 0 2 3 2 -1 -1 -0 1 1 1 0 -0 0 0 0 0 -0 0 0 -0 -1 0 0 0 0 -0 -0 -0 0 0 0 -0 0 nan
nan -0 -0 0 -0 -0 -0 0 -0 -1 -1 -1 -1 -1 -4 0 1 2 1 1 3 4 3 2 1 0 0 0 0 0 0 0 0 0 -0 0 0 -0 -0 -0 -0 0 0 0 0 0 -0 0 nan
nan 0 -0 -0 -0 -0 -0 -0 -0 -0 -0 -0 -0 -1 -2 -0 1 0 0 2 3 3 2 1 1 1 1 0 1 0 1 1 0 -0 -0 0 -0 0 0 -0 -0 0 0 0 0 -0 0 -0 nan
nan nan nan nan nan nan nan nan nan nan nan nan nan nan nan nan nan nan nan nan nan nan nan nan nan nan nan nan nan nan nan nan nan nan nan nan nan nan nan nan nan nan nan nan nan nan nan nan nan
Wind_Speed
6 5 4 1 3 4 4 7 4 7 6 4 4 5 7 4 4 4 18 11 10 8 6 6 11 18 23 24 24 24 24 22 19 19 20 24 25 26 28 26 24 22 22 22 22 23 23 23 21
9 8 5 3 4 1 5 5 6 6 9 4 8 15 3 2 7 10 19 13 8 5 4 5 10 17 24 26 26 26 26 24 21 20 21 23 25 27 27 26 24 23 22 22 24 23 23 21 21
11 10 5 4 4 6 6 6 4 11 14 5 3 4 8 4 11 11 12 13 10 7 5 5 8 15 24 27 27 27 26 24 23 21 23 24 27 26 26 24 24 23 22 24 24 24 23 21 20
10 6 3 4 8 7 7 5 2 11 23 11 10 2 6 12 10 13 12 9 7 3 4 4 7 12 19 26 28 28 27 25 24 23 24 25 25 25 25 24 23 22 22 24 27 27 25 23 23
13 4 2 3 7 7 4 10 17 11 5 16 15 6 4 11 14 14 13 10 8 4 7 8 9 11 14 21 26 28 27 26 25 25 26 26 26 26 25 24 22 21 23 25 28 28 28 27 27
5 3 2 5 6 6 7 14 12 11 23 28 9 7 7 13 15 16 15 13 9 5 7 9 11 12 12 14 21 25 27 27 27 29 28 26 26 25 26 26 26 26 26 27 29 31 31 30 28
6 4 6 6 4 7 6 6 5 8 17 15 11 7 4 15 17 19 16 13 9 6 7 10 13 16 17 18 17 21 24 25 24 28 26 21 22 19 24 26 27 27 26 28 33 32 30 29 27
5 4 4 6 6 11 7 4 6 5 16 9 18 6 5 22 22 20 16 12 9 8 7 8 13 16 18 21 21 22 24 30 26 21 12 22 18 18 23 23 26 25 24 33 33 31 31 29 26
7 1 5 8 10 8 3 4 4 11 11 22 9 11 10 23 25 22 20 18 16 12 10 10 10 14 17 21 23 23 25 31 31 19 30 23 20 28 23 27 25 25 24 35 35 35 31 26 23
6 5 10 6 11 7 2 5 20 10 18 22 23 14 11 23 28 28 27 23 18 14 13 12 13 13 15 17 23 23 26 29 32 33 30 35 29 31 26 25 25 26 26 36 39 35 30 25 25
6 12 4 7 18 15 6 12 11 8 13 22 20 26 17 26 31 29 27 21 15 13 15 14 14 15 15 16 20 21 21 20 25 30 33 30 32 29 35 30 28 29 33 40 40 35 30 27 26
8 9 18 9 17 12 7 21 10 13 26 35 34 31 27 31 31 29 28 22 18 17 15 14 15 17 16 16 20 21 20 19 17 30 32 31 32 24 34 37 36 33 40 42 41 37 31 26 24
10 8 18 20 20 21 23 16 17 21 38 40 35 29 31 29 30 29 26 20 19 20 16 15 15 17 15 14 16 19 20 21 22 29 36 33 37 37 33 44 39 36 46 45 41 36 32 29 27
10 13 19 20 23 20 12 16 12 29 38 33 29 24 31 31 32 30 28 25 22 20 16 13 14 12 12 13 15 17 19 21 26 32 38 39 38 37 46 45 41 37 47 46 43 35 33 31 25
14 12 9 7 6 7 14 15 10 30 34 33 29 26 34 34 34 33 32 23 23 20 17 12 12 12 12 14 13 17 19 22 26 30 35 39 45 39 49 48 44 39 47 47 45 38 35 32 26
5 5 7 3 8 9 11 25 12 21 26 27 31 27 32 37 35 34 33 25 24 23 18 13 12 14 15 15 15 15 16 15 17 26 31 36 43 41 45 48 42 40 45 45 47 44 38 31 24
3 11 9 6 8 6 9 13 8 15 18 18 24 20 28 37 37 36 34 28 26 24 18 14 14 16 16 16 16 15 13 13 16 20 27 30 39 54 55 49 43 43 44 44 48 45 41 31 25
5 6 4 5 3 3 6 9 9 18 16 20 23 25 22 35 40 41 37 31 27 25 18 15 16 18 18 17 18 14 13 12 11 20 27 31 36 40 45 43 43 43 44 45 48 47 40 34 28
6 5 5 5 8 6 8 13 13 9 14 14 24 28 31 29 36 44 38 33 29 27 22 19 19 21 20 20 18 15 16 9 16 14 26 35 31 36 36 38 40 41 43 44 47 46 38 31 27
8 9 9 6 7 10 8 12 14 14 9 20 23 29 32 27 29 38 38 36 33 30 24 21 21 21 20 21 18 16 18 13 17 23 23 21 27 32 33 36 39 42 41 44 45 46 39 32 28
9 7 4 7 9 16 4 13 15 13 9 18 26 31 28 29 33 37 40 40 36 33 27 22 22 21 20 21 17 18 20 19 22 24 22 29 33 37 37 36 39 41 41 43 43 46 40 37 31
10 6 9 5 6 9 2 7 9 8 8 5 14 15 22 27 34 40 43 43 40 35 28 22 21 19 19 19 19 18 25 27 27 28 26 28 34 37 39 40 39 39 38 40 40 44 42 36 37
5 4 4 6 8 7 8 6 7 5 9 10 8 8 15 29 38 44 47 47 43 37 31 26 22 20 18 18 19 17 24 25 24 25 28 31 36 39 39 40 43 39 38 41 39 37 37 37 38
1 3 4 6 7 7 10 8 4 5 9 5 5 7 12 24 37 45 44 45 43 37 32 28 25 21 18 18 21 20 22 23 27 28 31 29 27 40 42 38 39 39 40 39 41 38 36 38 39
8 2 2 4 6 6 6 9 11 8 8 12 13 19 23 16 24 37 43 45 43 41 35 30 28 25 20 19 20 22 20 18 19 22 25 30 31 28 33 36 40 41 42 41 39 42 40 41 41
11 5 3 4 3 3 5 5 5 10 13 7 20 27 30 24 26 41 49 48 45 41 36 33 30 27 23 20 20 21 21 20 18 19 26 27 32 34 32 39 37 36 38 42 41 39 42 34 38
3 8 0 3 3 1 4 5 5 11 13 14 18 21 16 18 25 42 46 48 43 41 38 34 29 28 24 20 20 22 22 22 21 18 20 27 31 33 32 37 37 37 39 41 42 42 37 34 41
4 1 2 3 3 2 4 5 3 11 14 15 16 18 26 10 23 31 39 44 40 41 36 32 27 25 22 20 20 21 22 24 22 20 20 21 24 26 30 42 40 37 34 36 38 39 35 36 34
4 3 3 2 2 2 3 0 5 9 12 13 15 22 24 3 16 17 19 25 32 32 33 29 25 23 22 18 18 19 22 24 24 23 22 23 23 25 29 34 41 42 39 37 34 35 35 37 39
5 5 4 2 3 3 0 3 5 8 13 17 16 19 23 26 25 19 14 12 15 21 27 25 22 19 17 14 17 16 18 20 25 25 24 24 27 29 30 32 36 43 45 44 44 44 45 47 47
Wind_Direction
210 187 170 211 55 65 256 257 234 267 316 235 161 160 187 151 157 205 151 150 151 158 171 171 182 191 198 196 196 196 194 192 191 186 180 178 173 172 172 172 173 176 176 174 169 167 160 156 157
184 169 157 119 103 120 261 248 252 257 249 188 141 131 143 212 149 156 170 165 163 199 206 198 194 192 198 200 199 198 197 195 190 189 184 179 177 173 176 178 183 182 177 173 164 161 158 160 161
169 162 149 137 149 205 219 215 213 332 345 247 241 222 158 197 182 179 174 172 175 197 217 217 208 200 201 203 203 203 203 202 201 195 192 190 184 184 184 185 184 179 175 164 163 165 163 164 165
162 158 109 129 224 248 208 265 312 338 322 305 271 180 198 170 194 186 178 172 181 196 251 244 224 204 208 209 208 208 208 206 204 201 197 191 188 188 186 182 180 176 176 166 164 165 164 166 170
166 153 158 212 239 263 245 258 295 293 263 280 269 216 208 196 181 181 186 180 186 204 235 226 225 213 216 219 217 215 213 211 208 202 200 192 190 186 183 181 176 175 168 163 166 164 163 169 167
160 143 126 220 235 250 272 266 278 253 279 264 240 180 169 197 190 191 195 188 182 224 245 226 223 218 215 222 225 224 221 217 213 206 196 188 182 181 179 177 171 165 162 166 165 161 168 166 165
162 133 213 194 210 282 240 238 223 273 272 240 195 146 219 193 195 195 195 196 199 227 240 246 228 224 220 217 220 224 224 220 215 196 166 175 175 176 177 174 171 167 167 169 164 167 172 169 167
210 132 197 203 175 246 247 220 258 351 327 292 200 181 215 192 193 198 198 207 220 231 225 231 241 238 233 226 223 218 217 217 207 150 181 175 177 190 185 185 178 175 176 172 166 172 175 172 166
193 208 216 196 185 236 203 5 221 313 306 327 269 190 216 188 194 202 205 210 224 229 234 238 246 244 241 231 225 225 222 227 203 211 205 223 228 198 184 198 186 185 183 173 169 173 177 173 173
183 212 214 207 222 239 330 316 303 328 314 308 309 271 212 196 198 206 212 214 223 230 237 243 249 246 247 230 230 225 227 230 231 227 208 213 206 185 199 200 197 192 190 175 170 173 179 181 169
222 241 216 224 237 254 280 279 280 297 292 276 283 296 218 197 199 208 217 221 234 237 231 246 247 245 240 231 226 225 222 225 218 205 205 207 198 214 194 203 199 193 188 174 172 176 182 181 175
261 238 233 254 253 263 247 275 274 255 266 282 288 298 228 197 202 212 220 221 225 232 235 249 247 245 242 229 222 218 217 205 219 208 201 190 183 182 207 198 200 195 186 177 178 179 183 186 183
242 251 260 260 263 259 270 260 259 275 279 285 288 283 211 204 210 214 220 224 230 228 233 245 254 251 242 230 218 211 212 207 205 200 202 202 205 206 220 204 201 199 185 183 179 180 183 178 175
287 273 260 255 258 261 259 270 263 274 277 281 286 251 215 209 212 212 216 222 228 224 225 250 266 239 217 211 213 209 211 209 212 217 218 220 220 215 191 200 201 197 187 184 182 181 179 175 179
262 267 277 251 226 220 258 273 232 264 276 276 274 240 221 215 213 217 223 224 231 223 223 249 259 229 203 205 219 214 221 228 224 219 218 221 206 196 199 199 201 194 188 183 184 180 181 179 182
267 261 266 219 212 237 174 264 265 259 263 262 271 235 225 217 217 221 223 223 223 215 219 239 246 221 204 216 223 229 238 230 230 223 214 216 211 209 207 201 199 194 190 186 185 181 182 184 184
259 263 277 288 225 221 170 256 244 260 286 265 269 259 228 218 216 221 221 221 220 215 218 233 232 218 210 221 222 228 226 224 222 219 216 212 213 198 202 200 196 191 188 185 183 183 186 182 180
240 267 272 262 300 317 276 266 275 277 287 277 279 285 247 220 218 220 218 213 214 214 216 223 223 217 211 212 207 217 219 233 202 226 211 196 188 190 192 197 194 189 187 186 185 185 188 190 184
275 262 249 278 279 294 264 277 280 283 282 285 287 275 258 232 233 217 215 209 208 211 214 218 214 215 209 211 206 210 215 212 177 198 184 198 206 187 193 199 193 190 190 186 188 188 184 188 186
263 268 277 276 273 306 292 287 287 284 256 257 268 265 247 231 214 214 209 205 208 211 212 214 213 217 215 218 216 214 201 192 188 185 168 171 176 189 195 204 195 192 190 189 191 189 183 187 194
246 249 259 263 300 297 307 294 286 276 243 269 285 255 241 229 216 206 204 205 206 209 212 214 212 217 216 215 214 206 208 194 186 187 196 198 196 198 194 204 198 194 192 190 191 190 192 191 197
267 227 252 302 338 277 44 282 279 284 277 258 272 240 233 214 218 209 204 207 210 211 212 215 211 211 215 216 213 206 204 202 200 202 207 211 209 205 198 201 200 197 195 194 192 194 201 200 200
247 296 346 322 306 291 266 263 279 246 286 287 265 257 242 223 215 209 210 214 210 209 209 213 210 208 213 214 218 207 204 210 216 215 212 215 213 214 206 203 198 201 201 200 197 198 204 209 208
129 27 289 250 273 247 217 225 248 227 242 280 296 277 248 228 225 221 212 210 207 207 208 212 210 210 211 213 212 215 213 214 215 218 221 219 206 196 201 200 200 203 207 207 209 206 212 215 217
183 217 250 206 215 240 191 212 242 270 262 279 284 294 291 262 229 212 206 208 206 206 208 210 210 211 210 210 212 215 220 226 225 218 214 218 206 205 208 208 207 210 212 212 213 218 220 220 215
194 202 213 243 216 281 215 250 231 230 245 308 326 288 287 275 244 215 211 208 207 205 208 209 209 210 210 210 211 215 215 225 231 218 210 212 215 219 228 216 216 216 218 215 224 225 224 224 229
174 215 4 335 235 303 255 287 279 2 15 12 358 344 282 277 220 204 206 206 205 206 208 210 209 211 212 214 212 213 216 218 226 228 225 219 219 216 219 216 216 219 222 222 224 229 228 235 230
177 175 134 168 294 242 248 231 11 8 5 2 8 359 332 211 188 195 200 202 205 207 205 208 211 214 213 218 219 218 218 220 226 224 231 231 231 225 218 216 219 221 224 227 230 232 230 229 231
165 189 233 247 244 291 315 32 39 350 348 4 13 5 344 244 179 175 175 195 200 201 202 207 210 213 216 223 227 226 225 222 224 227 228 230 232 235 231 226 223 224 226 227 226 228 233 237 239
163 147 184 215 186 218 280 250 332 349 5 17 17 21 28 73 113 129 140 173 187 199 203 208 211 214 222 233 234 243 239 232 234 237 238 234 233 236 238 240 237 234 233 235 234 236 240 242 241
Height
1489 1491 1492 1495 1505 1510 1512 1497 1482 1478 1471 1465 1463 1464 1465 1464 1467 1482 1470 1472 1473 1475 1476 1476 1477 1480 1482 1484 1485 1486 1488 1490 1492 1494 1496 1499 1498 1499 1502 1505 1508 1510 1513 1516 1518 1521 1523 1525 1528
1487 1490 1492 1494 1511 1518 1508 1485 1478 1472 1467 1464 1464 1464 1464 1464 1463 1466 1468 1469 1471 1473 1474 1475 1476 1477 1479 1482 1484 1485 1487 1489 1492 1495 1497 1500 1500 1501 1504 1505 1508 1510 1513 1516 1519 1523 1524 1527 1530
1486 1488 1491 1496 1511 1513 1501 1476 1470 1466 1466 1467 1466 1464 1463 1462 1462 1463 1465 1468 1469 1471 1472 1473 1474 1476 1478 1480 1482 1484 1487 1489 1491 1494 1496 1497 1499 1501 1504 1506 1507 1510 1511 1515 1519 1523 1526 1528 1531
1485 1489 1492 1499 1501 1489 1480 1469 1467 1466 1464 1465 1466 1464 1462 1460 1460 1461 1463 1464 1466 1467 1469 1471 1472 1475 1477 1479 1481 1483 1486 1489 1491 1493 1495 1496 1498 1501 1503 1505 1507 1511 1513 1515 1518 1521 1524 1528 1530
1484 1486 1496 1498 1492 1479 1472 1469 1468 1469 1468 1463 1464 1462 1459 1459 1460 1460 1463 1461 1464 1465 1467 1469 1471 1473 1475 1478 1480 1482 1485 1488 1490 1490 1493 1494 1497 1498 1501 1503 1507 1511 1514 1517 1519 1521 1524 1527 1531
1483 1483 1498 1498 1487 1473 1468 1465 1467 1466 1461 1458 1460 1460 1458 1458 1459 1460 1462 1462 1463 1464 1465 1467 1469 1471 1474 1476 1479 1482 1484 1487 1489 1489 1490 1493 1496 1501 1501 1505 1507 1510 1514 1518 1520 1522 1524 1527 1532
1478 1485 1488 1485 1482 1476 1463 1462 1462 1460 1456 1451 1452 1458 1457 1457 1460 1461 1460 1462 1462 1462 1463 1464 1467 1469 1471 1473 1476 1480 1483 1486 1489 1482 1480 1495 1501 1503 1505 1506 1509 1512 1514 1518 1521 1523 1526 1528 1532
1475 1477 1481 1479 1477 1472 1459 1457 1457 1458 1452 1449 1450 1454 1455 1454 1457 1460 1460 1461 1461 1461 1462 1462 1464 1466 1468 1470 1473 1476 1479 1480 1484 1478 1485 1494 1500 1501 1509 1510 1511 1514 1515 1517 1521 1524 1527 1529 1533
1472 1479 1481 1473 1470 1462 1454 1456 1453 1455 1454 1453 1453 1446 1448 1450 1453 1456 1457 1459 1459 1458 1460 1460 1462 1463 1464 1467 1469 1473 1475 1476 1479 1478 1483 1496 1500 1503 1506 1510 1509 1514 1517 1518 1521 1524 1528 1531 1535
1469 1472 1464 1457 1456 1456 1456 1456 1454 1454 1450 1448 1450 1450 1446 1447 1448 1451 1453 1455 1456 1456 1457 1457 1459 1460 1461 1463 1464 1468 1471 1472 1474 1475 1478 1489 1494 1499 1504 1508 1509 1514 1517 1519 1522 1525 1529 1533 1535
1460 1453 1453 1452 1451 1454 1455 1453 1455 1455 1450 1445 1449 1449 1447 1445 1446 1447 1449 1451 1452 1454 1454 1454 1455 1456 1457 1459 1461 1463 1466 1468 1470 1474 1477 1484 1489 1494 1500 1504 1508 1513 1517 1519 1522 1525 1528 1532 1534
1460 1449 1450 1450 1451 1453 1453 1449 1450 1451 1445 1443 1444 1444 1444 1441 1443 1444 1446 1447 1449 1450 1451 1450 1452 1453 1454 1456 1458 1460 1463 1465 1469 1473 1477 1482 1486 1490 1498 1500 1505 1510 1514 1518 1521 1523 1528 1532 1536
1453 1449 1447 1447 1447 1448 1448 1446 1446 1442 1441 1439 1441 1439 1438 1437 1440 1441 1445 1446 1446 1447 1448 1447 1448 1450 1451 1452 1455 1458 1460 1464 1467 1471 1475 1479 1484 1486 1491 1496 1501 1506 1511 1516 1521 1523 1527 1532 1536
1449 1447 1443 1442 1442 1443 1445 1440 1443 1435 1433 1434 1434 1434 1433 1433 1436 1438 1441 1441 1442 1444 1444 1444 1444 1446 1447 1450 1452 1455 1458 1462 1465 1467 1470 1475 1479 1482 1485 1491 1497 1503 1510 1515 1521 1525 1527 1532 1535
1449 1448 1440 1438 1435 1436 1439 1436 1434 1430 1429 1428 1427 1427 1429 1428 1431 1432 1434 1435 1437 1440 1441 1441 1441 1443 1445 1448 1450 1452 1455 1457 1460 1463 1465 1468 1474 1478 1481 1487 1494 1501 1508 1513 1520 1525 1528 1532 1536
1449 1445 1446 1432 1431 1430 1435 1427 1425 1425 1422 1420 1421 1422 1423 1424 1425 1427 1431 1432 1434 1437 1437 1438 1439 1440 1443 1446 1448 1449 1451 1452 1453 1456 1460 1463 1468 1473 1478 1485 1492 1499 1506 1511 1517 1523 1526 1532 1535
1450 1450 1447 1437 1427 1426 1429 1424 1417 1419 1418 1416 1416 1416 1419 1418 1421 1423 1426 1428 1431 1434 1435 1436 1437 1438 1441 1444 1446 1447 1447 1449 1451 1453 1455 1458 1462 1464 1473 1483 1490 1497 1504 1509 1515 1522 1525 1529 1534
1453 1452 1443 1440 1428 1424 1425 1423 1416 1415 1414 1412 1409 1409 1413 1415 1413 1415 1420 1424 1428 1431 1432 1433 1435 1437 1439 1441 1444 1445 1446 1447 1448 1446 1450 1455 1458 1465 1474 1484 1489 1496 1502 1507 1513 1521 1525 1528 1532
1446 1445 1445 1438 1428 1428 1424 1419 1414 1410 1410 1406 1402 1401 1403 1405 1406 1411 1416 1420 1424 1428 1428 1430 1431 1434 1435 1438 1441 1443 1444 1446 1449 1449 1450 1454 1461 1468 1478 1483 1489 1495 1501 1505 1513 1519 1524 1526 1530
1446 1445 1441 1433 1425 1424 1421 1416 1409 1406 1404 1400 1398 1394 1393 1397 1401 1405 1411 1416 1419 1422 1425 1427 1429 1431 1433 1436 1439 1443 1445 1447 1449 1452 1455 1458 1464 1471 1477 1483 1488 1494 1499 1505 1511 1516 1520 1525 1528
1444 1444 1439 1436 1426 1418 1418 1411 1406 1397 1396 1394 1390 1385 1386 1387 1392 1399 1404 1409 1414 1418 1420 1424 1427 1430 1432 1434 1438 1442 1444 1448 1451 1454 1458 1462 1466 1469 1474 1483 1488 1494 1498 1502 1508 1513 1518 1521 1526
1443 1435 1433 1433 1432 1433 1420 1425 1406 1398 1392 1388 1385 1382 1381 1381 1389 1392 1397 1403 1408 1412 1418 1422 1426 1428 1431 1433 1435 1439 1442 1446 1450 1453 1457 1462 1466 1467 1473 1478 1487 1492 1498 1502 1506 1511 1516 1520 1523
1437 1432 1434 1434 1435 1434 1425 1430 1401 1394 1391 1385 1381 1376 1377 1380 1382 1386 1390 1395 1402 1409 1414 1419 1424 1427 1430 1432 1434 1437 1441 1444 1448 1452 1455 1460 1462 1465 1471 1475 1482 1490 1496 1501 1505 1509 1513 1517 1521
1431 1434 1434 1434 1435 1432 1420 1419 1407 1398 1387 1380 1376 1376 1376 1377 1378 1382 1387 1393 1399 1407 1412 1417 1421 1424 1427 1430 1432 1435 1439 1443 1446 1450 1453 1456 1460 1460 1467 1473 1480 1487 1492 1498 1503 1507 1511 1515 1518
1431 1437 1435 1436 1435 1420 1403 1409 1398 1384 1377 1376 1372 1366 1367 1370 1374 1380 1383 1386 1393 1400 1407 1413 1417 1420 1424 1428 1431 1433 1436 1440 1444 1446 1449 1454 1458 1462 1466 1472 1477 1482 1487 1494 1498 1503 1507 1510 1513
1428 1434 1432 1426 1425 1417 1399 1403 1389 1373 1370 1372 1369 1364 1361 1364 1366 1368 1374 1378 1386 1395 1403 1409 1413 1417 1421 1425 1428 1432 1435 1438 1441 1446 1450 1453 1457 1462 1467 1469 1474 1479 1484 1489 1494 1498 1503 1506 1509
1430 1433 1428 1430 1427 1428 1411 1391 1378 1373 1372 1372 1370 1361 1356 1354 1357 1361 1370 1374 1383 1392 1399 1405 1411 1416 1419 1423 1426 1430 1433 1436 1439 1443 1448 1452 1455 1460 1464 1468 1472 1478 1482 1485 1489 1492 1497 1501 1504
1427 1427 1433 1430 1426 1423 1405 1392 1393 1390 1385 1376 1371 1368 1365 1356 1358 1364 1369 1372 1382 1389 1398 1405 1410 1414 1418 1422 1426 1429 1433 1436 1439 1441 1444 1447 1451 1456 1460 1465 1470 1474 1479 1481 1484 1488 1492 1495 1498
1427 1427 1430 1426 1423 1419 1415 1404 1397 1399 1392 1384 1379 1376 1372 1360 1363 1370 1377 1380 1385 1392 1400 1406 1411 1416 1419 1423 1426 1429 1431 1434 1437 1439 1442 1446 1450 1454 1458 1463 1466 1470 1474 1478 1481 1485 1487 1490 1494
1415 1420 1427 1423 1422 1421 1419 1407 1399 1397 1392 1386 1387 1386 1378 1370 1370 1374 1379 1383 1388 1395 1401 1407 1411 1416 1420 1425 1428 1429 1432 1435 1437 1439 1442 1445 1449 1453 1456 1460 1464 1467 1470 1473 1475 1478 1481 1484 1487